EST,Max TemperatureF,Mean TemperatureF,Min TemperatureF,Max Dew PointF,MeanDew PointF,Min DewpointF,Max Humidity, Mean Humidity, Min Humidity, Max Sea Level PressureIn, Mean Sea Level PressureIn, Min Sea Level PressureIn, Max VisibilityMiles, Mean VisibilityMiles, Min VisibilityMiles, Max Wind SpeedMPH, Mean Wind SpeedMPH, Max Gust SpeedMPH,PrecipitationIn, CloudCover, Events, WindDirDegrees
2013-1-1,32,24,17,28,18,12,87,71,55,30.13,30.09,30.02,10,10,7,9,4,,0.00,6,,307
2013-1-2,24,16,8,14,10,3,93,77,64,30.21,30.16,30.11,10,10,10,7,4,,0.00,3,,237
2013-1-3,30,20,10,25,15,3,80,69,58,30.22,30.16,30.12,10,9,4,12,6,18,0.00,7,Snow,234
2013-1-4,28,22,15,19,16,10,86,73,59,30.24,30.20,30.15,10,10,7,18,9,24,0.00,1,,234
2013-1-5,35,26,17,30,23,14,93,82,60,30.27,30.18,30.05,10,7,2,10,6,,0.00,3,Snow,210
2013-1-6,35,32,28,32,28,23,93,83,69,30.30,30.05,29.93,10,8,4,20,8,28,0.00,8,,238
2013-1-7,33,27,21,28,23,19,93,77,65,30.40,30.30,30.17,10,8,2,15,5,22,0.00,2,,210
2013-1-8,39,31,23,27,24,19,93,75,60,30.26,30.20,30.17,10,8,3,9,4,,0.00,0,,200
2013-1-9,44,38,30,32,29,21,87,68,56,30.49,30.25,30.09,10,10,10,16,8,24,0.00,1,,240
2013-1-10,39,31,23,32,28,21,93,80,64,30.53,30.39,30.10,10,9,3,12,4,18,0.10,3,Rain,100
2013-1-11,55,45,35,52,43,32,94,86,72,30.09,29.88,29.78,10,8,1,16,6,21,0.37,5,Rain,175
2013-1-12,59,54,48,50,47,43,94,81,67,29.96,29.90,29.78,10,9,2,12,7,18,0.28,2,Rain,210
2013-1-13,50,39,28,48,35,23,100,92,80,30.12,29.90,29.75,10,6,2,17,8,25,0.55,8,Rain-Snow,313
2013-1-14,28,24,19,23,18,16,93,80,69,30.43,30.34,30.14,10,10,5,17,10,26,0.00,6,Snow,294
2013-1-15,30,22,14,21,17,12,93,80,64,30.41,30.32,30.12,10,10,7,7,1,,0.00,0,,70
2013-1-16,35,28,21,27,21,16,93,77,44,30.11,29.99,29.88,10,9,5,14,3,22,0.00,4,,244
2013-1-17,37,28,19,28,21,12,87,71,48,30.35,30.19,30.01,10,10,7,17,8,24,0.00,2,,290
2013-1-18,37,29,21,23,17,12,74,61,52,30.43,30.28,30.03,10,10,10,20,8,31,0.00,2,,213
2013-1-19,48,42,35,32,28,23,70,59,50,30.03,29.89,29.73,10,10,10,20,12,30,0.00,1,,221
2013-1-20,41,29,17,32,13,9,73,61,44,30.21,30.09,29.74,10,10,4,32,18,44,0.00,5,Snow,285
2013-1-21,19,14,8,10,2,-6,68,56,42,30.16,30.09,30.02,10,9,2,23,10,31,0.00,6,Snow,261
2013-1-22,14,8,3,-2,-4,-6,72,56,41,30.31,30.25,30.15,10,10,10,17,11,25,0.00,2,,257
2013-1-23,19,14,8,14,4,-4,86,63,42,30.28,30.18,30.06,10,8,2,15,7,22,0.00,6,Snow,237
2013-1-24,21,13,5,10,4,0,85,62,39,30.59,30.45,30.11,10,10,7,18,8,25,0.00,1,Snow,9
2013-1-25,24,22,19,21,15,5,86,75,54,30.44,30.14,29.99,10,7,1,8,4,16,0.00,8,Snow,174
2013-1-26,30,24,19,21,18,14,86,73,55,30.43,30.27,30.05,10,8,2,10,4,,0.00,6,Snow,310
2013-1-27,32,24,17,32,20,12,100,76,64,30.43,30.32,30.08,10,9,2,10,3,20,0.07,6,Snow,126
2013-1-28,48,40,32,46,42,32,100,95,93,30.08,29.96,29.91,5,2,0,14,6,23,0.03,8,Fog-Rain,209
2013-1-29,60,51,42,54,51,41,100,90,77,29.98,29.76,29.43,10,4,0,15,6,30,0.15,8,Fog-Rain,189
2013-1-30,62,47,32,55,44,27,100,88,72,29.43,29.31,29.20,10,8,0,22,11,32,0.35,8,Fog-Rain-Snow,225
2013-1-31,30,22,14,27,14,5,86,72,59,29.97,29.75,29.44,10,7,0,28,18,37,0.00,8,Snow,263